Showing default

LKW-4, 43236

Orbit data source: Space-Track

LKW-4, 43236 is a Chinese payload satellite in SSO that was launched on Sat, 17 Mar 2018 UTC via a CHANG ZHENG 2D launch vehicle from the Jiuquan Satellite Launch Center, China (JSC). Payload-class satellites include a variety of spacecraft equipped with specific instruments for various scientific and technological missions. These include communications satellites like Starlink; space stations such as the ISS; scientific satellites like the Hubble; Earth observation satellites from companies like Planet Labs, Umbra, and HawkEye 360; GPS; miniature CubeSats for education and research; and military/defense satellites.

Loading next visibility...
Identifier
43236, 2018-025A
Orbit
SSO
Country
Flag of CNCN / PRC
Related business
Manufacturer
CAST?
Mission
Operational Defense Imaging
Bus & Motor
LKW, Unknown motor
Mass
~2,000 kg wet, ~2,000 kg dry
Launch date (UTC)
2018-03-17 (8 years ago)
Launch vehicle
CHANG ZHENG 2D
Launch site
Jiuquan Satellite Launch Center, China (JSC)
Object type
Payload
Rocket body
Debris
Shape & HBR
Hex Cyl + 3 Pan, 5.0 m
Radar Cross Section
8.135 m², Large (>1 m²)

Expand to show TLE details & history
Last TLE update: 14 hours ago

TLE from 14 hours ago
0 LKW-4
1 43236U 18025A   25308.87483410  .00024671  00000-0  51904-3 0  9999
2 43236  97.6170 100.5084 0003396  45.1122 315.0402 15.45292528425205
Epoch: 2025-11-04T20:59Z
TLE epoch observation values (Epoch: 2025-11-04T20:59:45.666Z)
Latitude
0.00005°
Longitude
101.21253°
Altitude
432.001 km
Speed
7.653 km/s
True Right ascension
06h 42m 02s
True Declination
0° 00' 00"
Sunlit
Object was in full shadow at epoch
Visualization orbit readout
Latitude
Unknown
Longitude
Unknown
Altitude
Unknown
Speed
Unknown
Apparent Right ascension
Unknown
Apparent Declination
Unknown
Sunlit
N/A
Visualization observer readout
Local Sidereal Time
06:47:58
Azimuth
Unknown
Elevation
Unknown
Doppler factor
Unknown
Orbital elements
Apogee altitude
429.771 km
Perigee altitude
425.149 km
Semi-major axis
6,805.597 km
Eccentricity
0.00034
Inclination
97.617°
RAAN
100.5084°
Arg. of periapsis
45.1122°
True anomaly
315.01269°
Mean anomaly
315.0402°
Eccentric anomaly
315.02645°
Mean motion
3.86584 °/min
Orbital period
93.12 mins
BSTAR
0.00051904
Loading maneuver chart data...
Computing Atmospheric mass density...
Loading historical data...
Loading historical data...
Loading historical data...
Loading historical data...
Loading historical data...
Loading historical data...
Loading historical data...

Documentation

Showing up to 5 results
|